Regional Weather Roundup
Issued by NWS

Home | Current Version | Previous Version | Graphics & Text | Print | Product List | Glossary On
Versions: 1 2 3 4 5 6 7 8 9 10 11 12 13 14 15 16 17 18 19 20 21 22 23 24 25 26 27 28 29 30 31 32 33 34 35 36 37 38 39 40 41 42 43 44 45 46 47 48 49 50
000
ASUS43 KDTX 282210
RWRMI
MICHIGAN HOURLY REGIONAL WEATHER ROUNDUP
NATIONAL WEATHER SERVICE DETROIT/PONTIAC MI
600 PM EDT THU MAY 28 2015

NOTE: "FAIR" INDICATES FEW OR NO CLOUDS BELOW 12,000 FEET WITH NO
SIGNIFICANT WEATHER AND/OR OBSTRUCTION TO VISIBILITY.

MIZ047>049-052>055-059>063-066>070-074>076-081>083-282300-
SOUTHEAST LOWER MICHIGAN

CITY           SKY/WX    TMP DP  RH WIND       PRES   REMARKS
ADRIAN         SUNNY     77  55  46 E6        30.21F
ALMA           PTSUNNY   80  57  44 S7        30.18F
ANN ARBOR      MOSUNNY   76  57  51 SE6       30.22S
BAD AXE        CLOUDY    78  55  45 S5        30.19R
CARO           MOSUNNY   78  59  51 S8        30.18S
DETROIT CITY   SUNNY     76  52  43 S7        30.23R
DETROIT        MOSUNNY   76  49  38 SE6       30.23S
FLINT          PTSUNNY   81  57  43 S9        30.20S
GROSSE ILE     MOSUNNY   68  57  68 S6        30.22S
HILLSDALE      MOSUNNY   79  53  40 E9        30.21F
HOWELL         MOSUNNY   78  55  45 SE8       30.21S

CITY           SKY/WX    TMP DP  RH WIND       PRES   REMARKS
JACKSON        SUNNY     78  58  49 S6        30.20F
LAMBERTVILLE   SUNNY     73  54  49 E6        30.22S
LANSING        MOSUNNY   79  54  41 S10       30.20S
LAPEER         PTSUNNY   78  56  45 S9        30.21R
MASON          MOSUNNY   75  59  57 SE5       30.21S
MONROE         MOSUNNY   73  54  49 E5        30.21S
MT. CLEMENS    MOSUNNY   74  53  48 SE10      30.21S
PONTIAC        PTSUNNY   76  56  49 SE10      30.22R
PORT HOPE        N/A     74  58  57 SE13      30.18S
PORT HURON     SUNNY     75  57  53 S9        30.23S
TRI CITIES     PTSUNNY   81  57  43 S10       30.18S
MIDLAND        CLOUDY    80  58  47 S6        30.16F
TROY           MOSUNNY   79  53  41 S5        30.25S
SAGINAW HB     CLOUDY    79  55  44 S9        30.17F
$$
MIZ043>046-050>051-056>058-064>065-071>073-077>080-282300-
SOUTHWEST LOWER MICHIGAN

CITY           SKY/WX    TMP DP  RH WIND       PRES   REMARKS
BATTLE CREEK   MOSUNNY   80  54  40 SE9       30.19F
BENTON HARBOR  SUNNY     81  54  39 SE7       30.15F
BIG RAPIDS     CLOUDY    79  53  41 W6        30.17S
COLDWATER      MOSUNNY   77  56  48 SE8       30.19F
FREMONT        FAIR      78  49  35 W8        30.17F
HOLLAND        MOSUNNY   79  60  52 W6        30.18F
GRAND RAPIDS   MOSUNNY   79  57  46 S9        30.18S
IONIA          FAIR      82  51  34 S10       30.17F
KALAMAZOO      MOSUNNY   80  53  39 SE6       30.18F
LUDINGTON      SUNNY     76  59  56 S10       30.17F
MARSHALL       MOSUNNY   79  54  41 SE8       30.19S
MOUNT PLEASANT PTSUNNY   80  58  46 S12G17    30.17S
MUSKEGON       PTSUNNY   78  58  49 SW9       30.17F
SOUTH HAVEN    SUNNY     82  49  32 SE7       30.16F
$$
MIZ016>042-282300-
NORTHERN LOWER MICHIGAN

CITY           SKY/WX    TMP DP  RH WIND       PRES   REMARKS
ALPENA         SUNNY     66  53  63 E9        30.18R
BEAVER ISLAND  SUNNY     68  54  60 W6        30.16S
BELLAIRE       SUNNY     80  58  47 W6        30.13S
CADILLAC       PTSUNNY   77  59  53 SW8       30.17S
CHARLEVOIX     SUNNY     64  55  72 NW6       30.18S
FRANKFORT      MOSUNNY   69  53  56 CALM      30.16R
GAYLORD        SUNNY     81  47  30 W5        30.15F
GRAYLING       PTSUNNY   81  50  33 SE3       30.16S
HARBOR SPRINGS SUNNY     67  55  66 CALM      30.14F
HOUGHTON LAKE  MOSUNNY   81  54  39 S8        30.16F
MANISTEE       MOSUNNY   75  55  50 SW13G20   30.17S
OSCODA         SUNNY     71  55  56 SE10      30.18R
PELLSTON       SUNNY     77  60  55 NE7       30.16S
ROGERS CITY    SUNNY     56  49  79 N3        30.18S
TRAVERSE CITY  PTSUNNY   72  57  59 NE7       30.13R
$$
MIZ007>008-015-282300-
EASTERN UPPER MICHIGAN

CITY           SKY/WX    TMP DP  RH WIND       PRES   REMARKS
KINROSS        MOSUNNY   75  57  53 SE9       30.16S
MACKINAC ISLAN SUNNY     62  52  69 E9G16     30.17F
NEWBERRY       SUNNY     70  55  58 S10       30.14S
S. S. MARIE    MOSUNNY   72  56  57 SE9       30.16R
MUNISING         N/A     77  58  51 S9G17     30.07F
$$
MIZ004>006-011>014-085-282300-
CENTRAL UPPER MICHIGAN

CITY           SKY/WX    TMP DP  RH WIND       PRES   REMARKS
MANISTIQUE     MOSUNNY   57  52  82 S6        30.14F
ESCANABA       MOSUNNY   54  48  82 SE6       30.11S
MENOMINEE      MOSUNNY   73  61  64 S13       30.09S
SAWYER-GWINN   MOSUNNY   75  57  53 S17G23    30.09F
$$
MIZ001>003-009>011-084-282300-
WESTERN UPPER MICHIGAN

CITY           SKY/WX    TMP DP  RH WIND       PRES   REMARKS
IRON MOUNTAIN  PTSUNNY   72  60  66 SE9       30.07F
HOUGHTON       PTSUNNY   47  44  90 E10       30.03F
COPPER HARBOR    N/A     55  48  77 SW9G20    30.03F
IRONWOOD       PTSUNNY   70  63  78 E5        29.97F
$$

ABBREVIATIONS USED IN REMARKS
   TC - TEMPERATURE IN CELSIUS
  WCI - WIND CHILL INDEX
   HX - HEAT INDEX
  VSB - VISIBILITY



USA.gov is the U.S. government's official web portal to all federal, state and local government web resources and services.